Weather Roundup
Issued by NWS Chicago, IL

Home | Current Version | Previous Version | Text Only | Print | Product List | Glossary On
Versions: 1 2 3 4 5 6 7 8 9 10 11 12 13 14 15 16 17 18 19 20 21 22 23 24 25 26 27 28 29 30 31 32 33 34 35 36 37 38 39 40 41 42 43 44 45 46 47 48 49 50
862
NZUS59 KLOT 240808
HRRLOT

CHICAGO AREA WEATHER ROUNDUP
NATIONAL WEATHER SERVICE CHICAGO/ROMEOVILLE IL
300 AM CDT TUE MAY 24 2016

NOTE: "FAIR" INDICATES FEW OR NO CLOUDS BELOW 12,000 FEET WITH NO
SIGNIFICANT WEATHER AND/OR OBSTRUCTIONS TO VISIBILITY.

* THESE STATIONS ARE NOT UNDER NWS QUALITY CONTROL. THEY ALSO MAY NOT
  REPORT WEATHER SUCH AS PRECIPITATION OR FOG.

ILZ005-006-012>014-019>023-240900-
NORTHEAST ILLINOIS

CITY           SKY/WX    TMP DP  RH WIND       PRES   REMARKS
OHARE          MOCLDY    67  44  43 S12       29.95R
MIDWAY         CLOUDY    66  43  43 SW7       29.96R
AURORA         CLOUDY    64  48  56 S6        29.96R
LANSING*       CLEAR     57  42  57 S3        29.98R
JOLIET*        CLOUDY    64  48  56 CALM      29.97R
WAUKEGAN       CLEAR     62  44  51 SW10      29.93R
DUPAGE AIRPORT PTCLDY    60  45  57 S5        29.95R
WHEELING       CLOUDY    58  43  57 S5        29.96R
KANKAKEE*      PTCLDY   N/A N/A N/A S5        29.99S
MORRIS*        MOCLDY    63  46  55 CALM      29.95S
LEWIS AIRPORT* CLOUDY    60  46  59 S7        29.97R
$$

WIZ051-052-058>065-066-070>072-240900-
SOUTHEAST WISCONSIN

CITY           SKY/WX    TMP DP  RH WIND       PRES   REMARKS
MILWAUKEE      PTCLDY    60  41  49 SW6       29.92S
KENOSHA*       PTCLDY    60  43  53 SW6       29.93S
RACINE*        CLEAR     58  43  57 SW7       29.94S
BURLINGTON     CLEAR     51  45  81 CALM      29.93S
WAUKESHA       CLEAR     59  37  44 S6        29.94R
WEST BEND      CLEAR     54  39  58 CALM      29.92S
$$

INZ001>003-010>013-019-020-240900-
NORTHWEST INDIANA

CITY           SKY/WX    TMP DP  RH WIND       PRES   REMARKS
GARY*          CLEAR     64  49  59 S3        29.98R
MICHIGAN CITY* NOT AVBL
RENSSELAER*    NOT AVBL
VALPARAISO     CLEAR     59  40  49 S3        29.99S
$$

LMZ740>746-240900-
SOUTHERN LAKE MICHIGAN

STATION/POSITION TIME  SKY/WX   TEMP WIND        PRES    VSBY
                                AIR  DIR/SP/G
                 (UTC)          (F)  (DEG/KT/KT) (MB)    (MI)
HARRISON CRIB    0700            68  190/ 14/ 15   N/A
BURNHAM HARBOR   0800            67  190/  6/  9   N/A
CALUMET HARBOR   0700            65  180/  5/  7 1013.9R
BURNS HARBOR     0800            64  190/  9/ 14 1015.2S
MICHIGAN CITY    0700            66  150/ 13/ 16   N/A
$$

ABBREVIATIONS USED IN REMARKS
   TC - TEMPERATURE IN CELSIUS
  WCI - WIND CHILL INDEX
   HX - HEAT INDEX
  VSB - VISIBILITY
$$




USA.gov is the U.S. government's official web portal to all federal, state and local government web resources and services.